METEOR 2-5 DEB, 38278

Orbit data source: Space-Track

METEOR 2-5 DEB, 38278 is space debris in LEO originally from a launch on Wed, 31 Oct 1979 UTC launched from the Plesetsk Missile And Space Complex (PKMTR). Debris objects in space refer to the collection of defunct objects orbiting the Earth. Examples of debris include non-operational satellites, rocket bodies, and fragments generated from explosions, collisions, or faulty payload assembly.

Loading next visibility...
Identifier
38278, 1979-095BY
Orbit
LEO
Country
Flag of CISCIS
Related business
Manufacturer
Unknown
Mission
Spacecraft
Bus & Motor
Unknown
Mass
Unknown
Launch date (UTC)
1979-10-31 (47 years ago)
Launch vehicle
Unknown
Launch site
Plesetsk Missile And Space Complex (PKMTR)
Object type
Payload
Rocket body
Debris
Shape & HBR
Unknown shape, 0.1 m
Radar Cross Section
Small (<0.1 m²)

Expand to show TLE details & history
Last TLE update: 3 days ago

TLE from 3 days ago
0 METEOR 2-5 DEB
1 38278U 79095BY  26170.61216072  .00003140  00000-0  10335-2 0  9991
2 38278  81.1694 126.3879 0005425  64.4637 113.9005 14.38026033760957
Epoch: 2026-06-19T14:41Z
TLE epoch observation values (Epoch: 2026-06-19T14:41:30.686Z)
Latitude
1.45208°
Longitude
177.94697°
Altitude
769.358 km
Speed
7.469 km/s
True Right ascension
20h 24m 39s
True Declination
1° 26' 36"
Sunlit
Object was in full shadow at epoch
Visualization orbit readout
Latitude
Unknown
Longitude
Unknown
Altitude
Unknown
Speed
Unknown
Apparent Right ascension
Unknown
Apparent Declination
Unknown
Sunlit
N/A
Visualization observer readout
Local Sidereal Time
23:20:15
Azimuth
Unknown
Elevation
Unknown
Doppler factor
Unknown
Orbital elements
Apogee altitude
766.042 km
Perigee altitude
758.295 km
Semi-major axis
7,140.305 km
Eccentricity
0.00054
Inclination
81.1694°
RAAN
126.3879°
Arg. of periapsis
64.4637°
True anomaly
113.95732°
Mean anomaly
113.9005°
Eccentric anomaly
113.92891°
Mean motion
3.59723 °/min
Orbital period
100.08 mins
BSTAR
0.0010335
Loading maneuver chart data...
Computing Atmospheric mass density...

Documentation

Showing up to 5 results
|